Buffalo, MN

10:07 AM CST on December 15, 2017 (GMT -0600)
Buffalo

Weather History for KCFE - January, 2013

Change the Weather History Date:

Tuesday, January 15, 2013

  Actual Average (KMIC) Record (KMIC)
Temperature  
Mean Temperature 17 °F -  
Max Temperature 27 °F 21 °F 39 °F (2006)
Min Temperature 7 °F 6 °F -22 °F (2009)
Degree Days  
Heating Degree Days 48    
Moisture  
Dew Point 11 °F    
Average Humidity 77    
Maximum Humidity 91    
Minimum Humidity 58    
Precipitation  
Precipitation 0.00 in - - ()
Sea Level Pressure  
Sea Level Pressure 30.10 in    
Wind  
Wind Speed 6 mph (South)    
Max Wind Speed 13 mph    
Max Gust Speed 21 mph    
Visibility 10 miles    
Events      
Averages and records for this station are not official NWS values.
T = Trace of Precipitation, MM = Missing Value Source: NWS Daily Summary

Daily Weather History Graph

Daily Weather History Graph

Search for Another Location

Airport or City:

Trip Planner

Search our weather history database for the weather conditions in past years. The results will help you decide how hot, cold, wet, or windy it might be!

Date:

Astronomy

Jan. 15, 2013 Rise Set
Actual Time 7:50 AM CST 4:59 PM CST
Civil Twilight 7:17 AM CST 5:32 PM CST
Nautical Twilight 6:41 AM CST 6:09 PM CST
Astronomical Twilight 6:05 AM CST 6:44 PM CST
Moon 9:42 AM CST 10:06 PM CST
Length of Visible Light 10h 15m
Length of Day
9h 09m
Waxing Crescent, 19% of the Moon is Illuminated
Jan 15
Waxing Crescent
Jan 18
First Quarter
Jan 26
Full
Feb 3
Last Quarter
Feb 10
New

Hourly Weather History & Observations

Time (CST) Temp. Windchill Dew Point Humidity Pressure Visibility Wind Dir Wind Speed Gust Speed Precip Events Conditions
12:15 AM 10.4 °F 0.8 °F 5.9 °F 82% 30.24 in 10.0 mi South 5.8 mph - N/A   Clear
12:35 AM 10.9 °F 2.9 °F 6.8 °F 83% 30.24 in 10.0 mi South 4.6 mph - N/A   Clear
12:54 AM 10.9 °F 0.2 °F 6.8 °F 83% 30.24 in 10.0 mi South 6.9 mph - N/A   Clear
1:15 AM 10.8 °F 1.2 °F 6.8 °F 84% 30.24 in 10.0 mi SSW 5.8 mph - N/A   Clear
1:35 AM 10.9 °F 1.4 °F 7.3 °F 85% 30.24 in 10.0 mi SSW 5.8 mph - N/A   Clear
1:54 AM 10.9 °F 1.4 °F 7.3 °F 85% 30.24 in 10.0 mi SSW 5.8 mph - N/A   Clear
2:15 AM 10.8 °F 1.2 °F 7.3 °F 86% 30.24 in 10.0 mi SSW 5.8 mph - N/A   Clear
2:35 AM 10.2 °F 2.0 °F 7.2 °F 87% 30.24 in 10.0 mi SSW 4.6 mph - N/A   Clear
2:54 AM 10.4 °F 2.2 °F 7.3 °F 87% 30.24 in 10.0 mi SSW 4.6 mph - N/A   Clear
3:15 AM 10.4 °F 2.2 °F 7.0 °F 86% 30.24 in 10.0 mi South 4.6 mph - N/A   Clear
3:35 AM 9.9 °F 0.2 °F 6.8 °F 87% 30.24 in 10.0 mi SSW 5.8 mph - N/A   Clear
3:54 AM 9.5 °F 1.2 °F 6.8 °F 89% 30.23 in 10.0 mi SSW 4.6 mph - N/A   Clear
4:15 AM 8.8 °F - 5.9 °F 88% 30.23 in 10.0 mi Calm Calm - N/A   Scattered Clouds
4:54 AM 8.6 °F - 5.9 °F 89% 30.22 in 10.0 mi Calm Calm - N/A   Clear
5:15 AM 8.6 °F - 5.9 °F 89% 30.22 in 10.0 mi Calm Calm - N/A   Clear
5:35 AM 8.4 °F - 5.5 °F 88% 30.21 in 10.0 mi Calm Calm - N/A   Clear
6:15 AM 8.4 °F 1.8 °F 5.9 °F 89% 30.21 in 10.0 mi South 3.5 mph - N/A   Clear
6:35 AM 8.6 °F 0.1 °F 6.3 °F 90% 30.20 in 10.0 mi SSE 4.6 mph - N/A   Clear
6:54 AM 8.1 °F -0.5 °F 5.7 °F 90% 30.20 in 10.0 mi SSE 4.6 mph - N/A   Clear
7:15 AM 8.2 °F - 5.9 °F 90% 30.20 in 10.0 mi Calm Calm - N/A   Clear
7:35 AM 7.9 °F 1.2 °F 5.7 °F 91% 30.21 in 10.0 mi South 3.5 mph - N/A   Clear
7:54 AM 7.7 °F - 5.5 °F 91% 30.21 in 10.0 mi Calm Calm - N/A   Scattered Clouds
8:15 AM 8.8 °F 2.2 °F 6.6 °F 91% 30.21 in 10.0 mi South 3.5 mph - N/A   Overcast
8:35 AM 10.4 °F 0.8 °F 8.1 °F 90% 30.21 in 10.0 mi South 5.8 mph - N/A   Overcast
8:54 AM 11.5 °F 2.1 °F 8.6 °F 88% 30.21 in 10.0 mi South 5.8 mph - N/A   Mostly Cloudy
9:15 AM 12.6 °F 3.4 °F 9.0 °F 85% 30.20 in 10.0 mi South 5.8 mph - N/A   Scattered Clouds
9:35 AM 13.1 °F 5.4 °F 9.3 °F 85% 30.19 in 10.0 mi South 4.6 mph - N/A   Clear
9:54 AM 14.0 °F 5.1 °F 9.5 °F 82% 30.19 in 10.0 mi South 5.8 mph - N/A   Clear
10:15 AM 15.3 °F 6.6 °F 10.0 °F 80% 30.19 in 10.0 mi South 5.8 mph - N/A   Clear
10:35 AM 16.7 °F 9.6 °F 10.4 °F 76% 30.18 in 10.0 mi South 4.6 mph - N/A   Clear
10:54 AM 17.6 °F 8.2 °F 10.2 °F 73% 30.18 in 10.0 mi SSW 6.9 mph - N/A   Clear
11:15 AM 18.9 °F 9.8 °F 11.1 °F 72% 30.17 in 10.0 mi South 6.9 mph - N/A   Clear
11:34 AM 19.9 °F 11.1 °F 11.3 °F 69% 30.16 in 10.0 mi South 6.9 mph - N/A   Clear
11:54 AM 20.5 °F 9.2 °F 11.7 °F 69% 30.14 in 10.0 mi South 10.4 mph - N/A   Clear
12:15 PM 20.8 °F 10.4 °F 11.5 °F 67% 30.13 in 10.0 mi South 9.2 mph - N/A   Clear
12:34 PM 21.6 °F 12.1 °F 11.5 °F 65% 30.11 in 10.0 mi South 8.1 mph - N/A   Clear
12:54 PM 23.0 °F 13.9 °F 11.8 °F 62% 30.10 in 10.0 mi South 8.1 mph - N/A   Clear
1:34 PM 24.3 °F 14.6 °F 12.0 °F 60% 30.08 in 10.0 mi South 9.2 mph - N/A   Clear
1:55 PM 25.2 °F 13.9 °F 12.4 °F 58% 30.08 in 10.0 mi SSW 12.7 mph - N/A   Clear
2:15 PM 25.3 °F 16.0 °F 13.1 °F 60% 30.08 in 10.0 mi South 9.2 mph - N/A   Clear
2:34 PM 25.7 °F 16.4 °F 13.6 °F 60% 30.06 in 10.0 mi South 9.2 mph - N/A   Clear
2:55 PM 26.6 °F 18.2 °F 14.4 °F 60% 30.06 in 10.0 mi South 8.1 mph 16.1 mph N/A   Clear
3:14 PM 27.1 °F 18.9 °F 15.4 °F 61% 30.05 in 10.0 mi South 8.1 mph - N/A   Clear
3:35 PM 27.3 °F 18.4 °F 16.5 °F 64% 30.05 in 10.0 mi SSW 9.2 mph - N/A   Clear
3:54 PM 27.5 °F 20.2 °F 17.4 °F 66% 30.04 in 10.0 mi South 6.9 mph - N/A   Clear
4:14 PM 27.5 °F 20.2 °F 17.8 °F 67% 30.04 in 10.0 mi SSW 6.9 mph - N/A   Clear
4:35 PM 27.1 °F 16.9 °F 18.1 °F 69% 30.04 in 10.0 mi South 11.5 mph 16.1 mph N/A   Clear
4:54 PM 26.4 °F 18.9 °F 17.4 °F 69% 30.03 in 10.0 mi South 6.9 mph - N/A   Clear
5:14 PM 25.5 °F 17.8 °F 16.9 °F 70% 30.03 in 10.0 mi South 6.9 mph - N/A   Clear
5:35 PM 25.0 °F 15.5 °F 16.0 °F 69% 30.02 in 10.0 mi South 9.2 mph - N/A   Clear
5:54 PM 24.6 °F 17.7 °F 14.9 °F 67% 30.01 in 10.0 mi South 5.8 mph - N/A   Clear
6:14 PM 23.7 °F 16.6 °F 14.9 °F 69% 30.00 in 10.0 mi South 5.8 mph - N/A   Clear
6:35 PM 23.7 °F 17.8 °F 14.7 °F 69% 29.99 in 10.0 mi South 4.6 mph - N/A   Clear
6:54 PM 23.0 °F 15.8 °F 14.0 °F 68% 29.99 in 10.0 mi South 5.8 mph - N/A   Clear
7:14 PM 22.1 °F 15.9 °F 14.0 °F 71% 29.98 in 10.0 mi South 4.6 mph - N/A   Clear
7:35 PM 22.1 °F 14.7 °F 13.6 °F 70% 29.96 in 10.0 mi South 5.8 mph - N/A   Clear
7:54 PM 21.9 °F 13.4 °F 14.0 °F 72% 29.95 in 10.0 mi South 6.9 mph - N/A   Clear
8:14 PM 22.1 °F 12.0 °F 14.2 °F 72% 29.94 in 10.0 mi South 9.2 mph - N/A   Clear
8:35 PM 22.6 °F 12.6 °F 14.5 °F 71% 29.91 in 10.0 mi South 9.2 mph - N/A   Clear
8:55 PM 22.8 °F 12.9 °F 14.7 °F 71% 29.89 in 10.0 mi South 9.2 mph 17.3 mph N/A   Clear
9:14 PM 22.3 °F 11.5 °F 14.5 °F 72% 29.89 in 10.0 mi South 10.4 mph - N/A   Clear
9:35 PM 22.5 °F 12.4 °F 14.7 °F 72% 29.87 in 10.0 mi South 9.2 mph 16.1 mph N/A   Clear
9:55 PM 22.1 °F 12.8 °F 15.4 °F 76% 29.87 in 10.0 mi South 8.1 mph 16.1 mph N/A   Clear
10:14 PM 22.1 °F 12.0 °F 15.8 °F 77% 29.85 in 10.0 mi South 9.2 mph - N/A   Clear
10:35 PM 22.6 °F 11.9 °F 16.3 °F 77% 29.83 in 10.0 mi South 10.4 mph - N/A   Clear
10:55 PM 22.5 °F 12.4 °F 16.3 °F 77% 29.83 in 10.0 mi South 9.2 mph - N/A   Clear
11:14 PM 22.3 °F 12.2 °F 16.5 °F 79% 29.82 in 10.0 mi South 9.2 mph - N/A   Clear
11:35 PM 23.0 °F 13.1 °F 16.7 °F 77% 29.81 in 10.0 mi South 9.2 mph 20.7 mph N/A   Scattered Clouds